Wind_Speed
51 51 53 55 55 54 53 52 53 53 54 53 53 52 50 49 49 49 48 48 46 46 48 48 46 43 42 41 38 38 40 40 41 41 41 42 42 43 45 46 47 47 46 45 45 44 44 44 43 43 43 44 46 48 52 55 56 58 59 60 60 59 56 54 56 54 49 49 53 54 53 54 55 58 60 62 64 66 66 66 66 66 64 62 61 61 62
51 51 53 55 56 56 55 54 55 56 57 57 56 55 54 53 53 52 52 51 50 49 52 54 52 51 51 47 40 36 35 35 38 40 40 41 40 42 47 49 48 49 49 48 48 47 46 46 46 47 48 50 51 52 55 57 58 59 60 60 60 59 59 59 61 61 57 56 59 60 59 60 60 59 58 61 65 68 69 71 71 71 68 63 57 51 50
51 52 53 54 56 55 55 55 56 57 58 59 58 58 58 57 57 56 56 56 54 55 56 56 54 53 54 54 50 46 43 41 41 42 42 44 46 48 51 53 52 52 52 52 52 51 51 51 51 51 52 53 55 57 59 60 62 62 63 64 64 63 64 66 68 70 70 70 71 71 71 70 67 64 63 65 68 70 71 72 72 71 68 63 56 50 48
51 52 53 55 56 56 55 55 56 57 58 60 59 58 59 60 59 59 60 60 60 61 62 61 59 57 57 57 57 57 56 53 51 49 45 45 48 52 54 56 56 55 55 55 55 55 55 54 53 54 55 55 56 60 62 63 64 65 66 67 68 68 70 72 74 76 77 77 77 76 75 74 71 68 67 68 68 67 67 68 67 67 67 65 63 62 60
52 52 53 54 56 57 56 55 57 58 60 61 60 58 57 59 60 61 63 64 64 65 66 66 66 65 64 64 63 62 61 60 59 57 54 53 54 54 55 56 56 56 57 58 59 59 59 58 57 56 57 57 57 59 62 63 64 65 66 67 69 70 71 73 75 77 79 79 78 76 74 72 67 62 60 62 65 67 69 71 72 73 74 71 69 68 67
54 54 54 55 57 57 56 56 58 59 61 62 61 60 59 59 60 61 62 63 65 66 68 69 70 69 69 68 67 66 65 63 61 60 60 62 63 63 63 63 63 63 63 63 63 63 63 64 64 64 63 63 62 62 62 63 63 65 66 67 67 68 69 71 73 75 77 78 78 78 76 73 69 67 66 69 73 76 78 80 81 81 80 77 73 70 69
56 55 55 57 57 57 57 58 59 60 61 62 62 61 61 61 61 61 61 61 62 63 65 68 70 70 70 69 69 68 66 65 63 62 61 62 64 65 65 66 65 65 64 63 63 63 63 64 65 66 68 68 68 68 68 68 68 69 71 72 71 71 72 73 73 74 75 75 76 77 78 77 77 77 78 79 80 81 81 81 82 82 81 79 78 77 77
58 56 57 58 58 58 59 60 61 61 61 61 62 62 63 63 62 61 60 60 60 60 61 63 64 64 65 65 66 65 65 64 63 64 64 65 65 65 66 65 65 64 63 63 63 63 64 65 66 67 68 67 67 68 70 72 73 75 76 76 76 76 76 77 77 77 77 77 77 78 79 80 82 83 85 85 86 87 86 85 84 83 82 81 81 81 83
60 59 60 61 60 60 61 62 62 62 61 61 62 62 64 65 63 61 60 60 60 61 61 61 62 62 61 61 60 60 61 61 61 62 64 65 66 67 67 67 66 64 63 62 63 64 66 67 68 68 68 67 66 65 66 68 71 74 76 77 77 78 79 80 81 81 82 82 83 83 83 83 85 86 87 89 90 90 90 90 89 89 88 87 87 86 86
62 62 63 63 63 62 62 62 63 63 62 62 62 62 63 64 62 61 60 60 61 62 62 63 63 64 63 61 60 58 58 59 59 60 61 63 64 65 65 65 64 62 60 59 62 63 64 66 68 69 70 69 67 65 65 66 67 69 70 71 73 75 77 79 80 82 83 84 86 86 87 88 89 90 91 91 92 93 94 94 94 94 95 94 94 94 94
65 64 65 66 66 65 64 63 64 65 65 65 64 63 63 63 62 62 62 62 62 62 64 65 65 66 65 63 60 60 61 61 61 62 62 63 63 63 63 64 63 61 59 60 63 64 64 64 66 68 71 71 69 67 68 68 69 69 68 67 67 69 70 72 73 74 76 79 81 83 86 88 89 91 92 93 94 94 95 96 97 97 97 97 97 98 98
66 66 67 68 69 68 67 67 67 68 67 67 67 66 65 64 64 65 65 64 64 64 66 66 66 67 67 64 62 65 66 65 64 65 64 65 65 65 65 65 64 64 62 61 63 66 68 69 69 70 72 73 71 69 69 70 71 71 71 70 68 68 68 68 68 68 70 71 74 76 79 81 83 84 86 87 88 89 90 91 92 92 92 92 92 92 92
69 70 71 72 73 72 71 70 70 71 70 70 70 69 67 66 67 68 67 66 66 67 68 68 68 70 70 67 66 68 69 68 67 67 67 67 67 67 67 67 66 66 66 66 65 67 69 71 73 73 73 74 73 71 71 71 73 74 74 73 72 71 69 68 68 68 69 70 72 74 76 77 78 79 79 80 81 81 82 83 83 83 83 83 83 83 83
73 73 74 76 76 76 74 73 73 73 73 73 73 72 69 69 70 70 69 69 69 70 71 71 71 72 72 70 69 70 71 71 70 69 69 69 69 69 70 70 70 70 70 70 70 70 71 72 74 75 75 75 74 74 73 74 75 77 77 76 76 75 74 72 71 70 70 71 72 74 76 77 78 78 79 79 79 79 79 79 79 80 80 80 80 80 80
75 76 77 79 78 77 76 75 75 75 75 75 75 74 72 71 72 72 72 72 72 72 73 73 74 74 74 73 72 72 73 73 73 72 72 71 72 72 72 73 73 74 74 74 74 74 74 75 75 76 76 77 77 76 76 77 78 79 79 79 78 78 78 78 77 76 75 74 74 76 77 78 79 79 80 80 80 81 81 80 80 81 81 81 81 81 81
77 79 81 81 80 78 78 77 77 77 77 77 77 76 75 74 74 74 74 74 74 75 75 75 75 75 75 75 75 75 75 76 76 75 75 75 75 75 75 75 76 76 76 76 76 76 77 77 78 78 79 79 79 79 78 79 80 81 81 81 81 80 81 81 81 81 80 79 79 79 79 80 80 81 81 82 82 83 83 82 82 83 83 84 84 83 83
79 81 83 83 81 80 80 80 80 79 79 80 80 79 78 78 77 77 77 77 77 78 78 77 77 77 78 78 78 78 78 78 78 79 78 78 78 78 78 78 78 79 78 78 79 79 79 80 80 81 81 81 82 81 81 81 82 82 82 83 83 83 83 84 84 84 84 84 83 83 83 83 83 83 83 83 84 85 85 85 85 85 85 85 86 85 85
78 80 82 83 82 82 82 82 82 82 82 82 82 82 81 81 80 80 80 80 80 80 80 81 80 80 81 81 80 80 81 81 81 81 81 81 81 81 81 81 81 81 81 81 81 81 82 82 83 83 84 84 84 84 84 84 84 84 85 85 86 86 87 87 87 87 88 87 87 87 86 86 85 86 86 85 86 87 87 87 87 88 88 88 88 87 88
74 76 78 79 81 81 82 82 82 83 83 83 83 84 84 84 83 83 83 83 83 83 83 83 83 83 83 83 83 83 83 83 84 84 84 83 84 84 84 84 84 84 84 84 84 83 84 85 85 85 86 86 87 87 87 87 87 88 88 88 89 89 90 90 91 91 91 91 91 91 90 89 89 88 88 87 87 88 89 90 90 90 91 91 90 90 90
70 71 73 74 77 79 80 80 80 81 82 82 83 84 84 84 84 84 84 84 85 85 85 86 86 86 86 86 86 86 86 86 86 86 86 86 86 87 87 87 87 87 87 87 86 86 86 87 88 88 88 89 89 90 90 90 91 91 91 91 92 93 93 94 94 94 95 95 94 94 93 93 92 91 90 90 89 89 90 92 92 92 93 93 92 92 93
66 67 68 69 71 73 75 76 77 78 79 80 81 82 83 83 83 84 84 85 85 85 86 86 87 87 87 87 87 87 88 88 88 88 88 88 88 88 89 89 88 89 89 89 88 88 88 89 89 89 90 90 91 92 92 93 93 93 93 94 94 95 95 96 96 97 97 96 96 96 95 95 95 93 93 92 91 90 91 93 94 94 94 94 94 94 94
60 62 63 65 66 68 69 71 72 74 75 76 77 79 80 81 81 82 83 84 84 84 85 85 86 86 87 87 87 87 88 88 88 88 88 88 89 89 89 88 88 89 89 89 89 89 89 89 90 90 90 91 91 92 93 93 94 94 94 94 94 95 96 96 96 97 97 97 97 96 96 97 97 96 95 94 93 92 92 93 95 96 95 94 94 94 94
54 56 58 59 61 62 64 66 67 69 70 71 72 74 75 76 77 78 79 80 81 82 82 83 84 85 85 85 86 86 87 87 86 86 86 87 88 88 88 88 88 88 88 88 88 89 89 89 89 89 89 90 90 91 91 92 92 92 92 93 93 94 95 96 96 95 95 96 96 96 96 96 96 96 95 94 94 93 93 93 94 95 95 95 94 93 93
50 52 53 54 55 56 58 60 61 62 63 65 67 68 69 70 71 72 73 74 76 77 78 79 80 81 81 82 82 83 84 84 84 84 84 85 86 86 87 87 87 87 87 87 87 87 87 87 87 87 87 87 87 87 88 88 88 89 89 90 91 92 93 93 93 93 94 94 94 94 94 94 94 93 93 93 92 92 92 92 92 92 93 94 93 92 93
47 49 50 50 50 51 53 54 55 57 58 59 61 62 63 64 65 66 67 68 69 70 71 72 73 74 75 76 76 77 78 79 79 79 80 80 81 81 82 82 82 83 83 83 83 83 83 83 83 82 82 82 82 82 82 83 83 84 85 86 86 87 88 89 89 90 90 90 90 91 91 91 90 90 89 89 89 89 88 88 89 89 90 91 91 91 91
45 46 47 47 47 48 49 50 51 53 54 55 56 57 58 59 59 60 61 62 63 64 65 65 66 67 68 69 69 70 71 72 73 73 74 74 75 75 76 76 76 77 77 78 78 78 78 78 78 78 77 77 76 76 76 77 78 79 80 81 81 81 82 83 83 84 84 84 85 85 85 85 85 85 84 85 85 84 83 83 84 84 85 85 86 87 87
43 45 45 46 46 46 47 48 49 50 51 52 53 54 55 55 56 57 57 58 59 59 60 61 61 62 63 63 64 65 65 66 66 67 67 68 68 69 69 70 71 72 73 73 73 73 73 73 74 74 74 73 72 71 71 72 73 74 76 76 77 77 78 79 79 79 78 78 78 79 79 78 78 78 79 79 79 79 79 78 77 78 78 78 78 79 80
41 42 43 44 44 45 45 46 47 48 49 50 51 51 52 53 54 54 55 56 56 57 57 58 58 59 59 60 61 61 61 62 62 62 62 62 63 64 65 66 66 67 67 67 67 68 68 69 69 69 70 69 68 68 68 68 68 69 70 71 72 73 74 76 76 76 75 74 73 73 73 73 73 74 75 75 74 74 74 73 72 72 72 71 70 71 73
37 39 40 41 42 43 44 44 45 46 47 48 48 49 50 51 52 52 53 53 54 54 55 55 56 56 57 58 58 59 59 59 59 58 59 59 60 61 62 62 62 62 62 63 63 63 64 64 64 65 65 65 65 65 65 65 65 65 66 67 68 69 70 72 73 73 72 70 69 68 68 68 69 71 71 71 71 70 70 70 70 70 69 66 65 67 70
34 36 37 38 39 40 41 42 43 44 45 45 46 46 47 48 49 50 51 51 52 52 52 53 54 54 55 55 56 56 56 56 56 56 57 58 58 58 58 58 58 58 58 58 59 59 59 60 60 60 61 61 61 62 62 62 62 62 63 64 65 66 67 68 68 69 68 67 65 65 65 65 66 66 66 66 66 66 66 67 67 67 66 63 62 65 69
31 32 33 34 36 37 38 39 40 41 41 42 43 43 44 45 46 47 48 48 49 49 50 50 51 52 52 52 53 53 54 54 54 54 55 55 55 55 55 55 55 55 55 55 55 56 56 57 57 57 57 57 57 58 58 58 58 58 59 60 62 63 63 63 64 64 64 63 63 63 63 62 62 62 62 62 63 62 63 64 64 63 63 62 61 63 65
27 28 30 31 33 33 34 36 37 38 38 39 40 41 42 42 43 44 44 45 45 46 46 47 48 49 49 49 49 50 50 51 51 51 51 51 51 51 51 51 51 51 51 51 52 52 53 53 54 54 54 54 54 54 54 53 53 54 55 57 58 59 58 59 59 60 61 61 61 61 60 60 60 59 59 59 60 60 60 60 60 60 61 61 60 60 60
25 27 28 29 30 31 32 33 34 35 36 37 37 38 39 39 40 41 41 42 42 43 44 45 45 46 46 46 47 47 48 48 48 48 47 47 47 47 47 47 47 47 47 47 48 48 49 49 49 49 49 49 50 50 50 50 49 50 52 53 54 54 54 55 56 57 57 57 57 58 58 59 58 57 57 57 57 57 57 57 57 58 59 59 58 57 57
25 26 27 28 29 30 31 32 33 33 34 34 35 36 36 37 38 38 39 40 40 41 42 43 43 43 43 44 44 45 45 45 45 44 44 44 44 44 44 44 44 44 45 45 45 45 45 45 45 45 45 45 45 46 46 46 46 47 49 50 51 51 51 51 52 53 53 53 54 55 56 56 55 55 55 55 55 55 55 55 55 56 57 57 55 55 56
25 26 27 28 28 29 30 30 31 32 32 33 34 34 35 36 37 37 38 38 39 40 40 41 41 41 41 42 42 43 43 42 42 41 41 41 42 42 42 42 42 42 42 42 42 42 42 42 42 41 41 41 41 42 42 43 43 44 46 47 47 48 48 49 49 49 50 50 51 52 52 52 52 52 53 53 53 53 53 54 54 54 54 54 54 54 54
25 26 27 28 28 28 29 30 30 31 31 32 33 34 35 35 36 36 36 37 37 38 39 39 39 39 39 40 41 41 41 40 40 39 39 40 40 40 40 40 40 40 39 39 38 38 39 39 40 39 39 38 38 38 39 39 39 40 41 42 43 44 44 45 45 46 46 47 48 48 48 49 49 50 50 51 51 51 51 52 52 52 52 52 51 51 51
25 26 27 28 28 28 28 29 30 30 31 32 32 33 34 35 35 35 36 36 36 36 37 37 37 37 37 38 39 39 39 38 38 38 38 38 38 38 38 38 38 37 36 36 36 36 36 37 37 37 37 36 36 35 35 36 36 36 37 38 39 39 40 40 41 42 42 43 44 44 45 45 46 46 47 47 48 48 48 48 49 49 49 49 49 49 49
25 26 27 27 27 27 28 28 28 29 30 30 31 32 33 33 34 34 34 34 34 35 35 35 35 35 36 36 37 37 37 37 36 36 36 36 36 35 35 35 35 34 34 34 34 34 34 35 35 35 35 34 34 33 33 33 33 34 34 35 36 36 37 37 38 38 39 39 40 40 41 42 42 43 43 43 44 44 44 44 45 45 45 45 46 46 46
25 26 26 26 27 27 27 27 27 28 28 29 30 30 31 31 32 32 32 33 33 33 33 33 33 33 34 34 35 36 35 35 34 34 34 34 33 33 33 33 32 32 32 33 33 33 33 33 33 33 32 32 32 32 31 31 31 31 32 32 33 33 34 34 35 35 35 36 36 37 37 38 38 39 39 39 40 40 40 40 41 41 42 42 42 42 43
25 26 26 26 27 27 27 27 27 27 27 28 28 29 30 30 30 30 31 31 31 32 32 32 32 32 32 32 33 34 34 33 32 32 32 32 31 31 31 31 31 31 31 31 31 31 31 30 30 30 30 30 30 30 29 29 29 29 29 30 30 30 31 31 31 32 32 33 33 34 34 35 35 35 35 36 36 36 36 37 37 37 38 38 39 39 39
25 26 26 26 27 26 27 26 26 26 26 27 27 28 28 29 29 29 29 29 30 30 30 30 30 30 30 31 31 32 32 32 31 30 30 30 30 29 30 30 30 30 30 30 29 29 29 29 28 28 28 27 27 27 27 27 27 27 27 27 27 27 27 28 28 28 29 30 30 31 31 31 32 32 32 32 32 33 33 33 33 34 35 35 35 36 36
26 26 26 26 26 27 26 26 26 26 26 26 26 26 27 28 28 28 28 28 29 29 29 29 29 29 29 29 30 31 31 31 30 29 29 29 28 28 28 29 29 28 28 28 28 27 27 27 26 26 26 25 25 25 25 25 25 25 25 24 24 24 24 24 25 25 26 26 27 27 27 28 28 28 29 29 29 30 30 30 31 31 32 32 32 33 33
26 27 27 27 27 27 26 26 26 26 26 26 26 25 26 26 27 27 27 27 27 28 28 28 28 29 29 28 28 29 30 30 29 28 28 28 27 27 27 27 28 27 27 27 27 26 25 25 24 24 24 24 24 23 23 23 23 23 23 22 22 22 22 22 22 22 22 23 23 24 24 25 25 25 26 26 27 27 27 28 28 29 29 30 30 30 30
26 26 27 27 27 27 26 26 26 26 26 26 25 25 25 25 25 25 26 26 26 27 27 27 27 28 28 28 28 28 29 29 28 28 27 27 26 26 26 26 26 26 26 26 25 25 24 23 23 22 22 22 22 22 22 22 21 21 21 20 20 20 20 20 20 20 20 20 21 21 22 23 23 23 24 24 25 25 26 26 26 27 27 27 28 28 29
25 26 26 27 27 27 26 26 26 26 27 26 26 25 25 25 25 25 25 25 25 26 26 26 26 27 27 27 27 27 28 28 28 27 26 26 25 25 25 25 25 25 25 24 24 24 23 22 21 21 21 20 20 20 20 21 21 20 20 19 19 18 18 18 18 18 18 19 19 19 20 21 21 22 22 23 23 24 24 24 25 25 25 26 26 27 27
25 25 26 26 26 26 26 26 26 27 27 27 26 26 25 25 25 25 24 24 24 25 25 25 26 26 26 27 27 27 27 27 27 27 26 25 25 25 24 24 24 24 24 24 23 23 22 21 21 20 20 19 19 19 19 19 19 19 19 19 18 18 17 17 17 18 18 18 18 18 19 19 19 20 20 21 21 22 22 22 23 24 24 25 25 26 26
25 25 25 25 25 26 26 26 26 27 27 27 26 26 25 25 25 25 24 24 24 24 25 25 25 25 25 26 26 26 26 26 26 26 26 25 25 24 24 24 24 23 23 23 22 22 21 21 20 20 19 19 19 19 19 18 18 18 18 18 18 17 17 17 17 17 17 17 18 18 18 18 18 18 19 19 20 20 21 21 21 22 23 24 24 25 26
25 25 25 25 25 25 26 26 27 27 27 27 27 26 26 26 25 25 24 24 24 24 24 25 25 25 25 25 26 26 26 26 26 26 26 25 25 24 24 24 23 23 23 23 22 21 20 20 20 19 19 19 19 19 19 18 18 18 18 18 18 17 17 17 17 17 17 17 18 18 18 18 18 18 18 19 19 19 20 20 20 21 22 23 24 24 25
26 26 26 26 26 26 26 26 27 27 28 27 27 27 27 26 26 25 25 25 25 25 24 24 25 25 25 25 25 26 26 26 26 26 26 26 25 25 24 24 24 23 23 23 22 21 21 20 20 19 19 19 19 19 19 19 19 18 18 18 18 18 17 17 17 17 17 17 18 18 18 18 18 19 19 19 19 20 20 20 21 21 22 23 23 24 25
27 27 27 27 27 28 27 27 27 28 28 28 28 28 28 27 27 26 26 25 25 25 25 24 25 25 25 25 26 26 26 26 26 26 26 26 26 25 25 24 24 24 23 23 23 22 21 21 20 20 19 19 19 19 19 19 19 19 19 19 19 18 18 18 18 18 18 18 18 18 18 18 19 19 19 19 20 20 21 21 21 22 22 23 24 24 25
27 28 28 29 29 29 30 29 29 28 28 29 29 29 29 29 28 28 27 26 25 25 25 25 25 25 25 26 26 26 26 26 25 26 26 26 26 26 26 25 25 25 24 24 24 23 22 21 21 20 20 20 20 19 19 19 19 19 19 19 19 19 19 19 18 18 18 18 18 18 18 18 19 19 20 20 20 21 21 21 22 22 23 23 24 24 25
28 28 29 30 30 31 31 32 31 30 30 30 30 31 31 30 29 29 28 27 26 26 26 27 26 26 26 26 26 26 26 26 26 25 26 26 26 26 26 26 26 26 25 25 25 24 23 23 22 21 21 20 20 20 19 19 19 20 20 20 20 20 20 20 20 19 19 19 18 18 19 19 19 19 20 20 21 21 21 22 22 22 23 23 24 24 25
Wind_Direction
239 238 239 240 240 240 241 241 242 244 244 244 243 244 243 243 244 245 246 246 247 247 245 240 238 238 237 236 237 240 242 245 246 245 246 248 247 247 247 247 247 247 247 248 247 247 246 244 241 239 238 239 240 239 240 240 240 241 241 242 244 247 247 247 249 249 247 248 251 254 254 255 258 263 267 270 270 271 272 273 273 273 274 277 282 284 283
241 241 240 241 242 241 241 241 242 244 245 245 244 244 244 243 243 245 246 246 245 244 245 244 242 241 241 239 236 236 237 241 246 246 246 247 248 249 250 249 248 247 247 248 247 247 247 246 244 242 241 242 242 242 242 243 242 241 240 240 240 240 240 241 244 246 244 242 243 246 249 254 259 264 267 269 270 271 272 272 272 273 274 275 277 279 280
241 242 242 242 243 243 242 242 243 245 247 248 247 246 245 244 243 243 244 244 244 244 246 247 246 245 245 244 242 239 237 240 246 250 252 252 251 251 253 253 252 251 251 251 251 251 250 249 248 246 244 243 243 244 245 246 246 245 243 242 240 238 237 238 241 244 246 247 249 252 255 257 260 261 263 265 268 270 270 270 270 271 271 271 269 267 270
241 242 242 243 244 244 243 243 243 244 246 248 248 247 247 246 245 244 244 244 244 245 247 248 248 247 248 248 247 246 246 245 246 247 251 254 253 252 253 254 254 254 255 255 255 254 253 251 249 248 245 243 243 244 246 247 247 247 247 246 245 243 241 241 242 244 246 249 252 254 257 260 262 264 264 264 265 264 264 265 267 268 269 270 269 267 267
241 241 242 243 245 245 245 244 243 243 244 246 247 247 247 247 246 245 245 245 244 245 247 248 249 249 249 250 250 251 251 251 251 250 250 252 253 254 255 255 255 256 256 257 257 257 256 254 251 249 246 244 243 243 244 245 246 246 247 247 247 246 245 245 245 245 246 247 249 251 254 257 259 259 258 258 258 259 260 263 266 268 269 270 271 270 268
241 241 241 242 243 245 245 245 244 244 245 247 248 248 247 248 248 248 248 247 246 246 247 248 250 251 252 252 253 254 254 255 255 256 255 254 254 255 256 257 258 259 259 260 260 260 260 258 256 253 250 247 245 243 242 242 243 244 245 245 246 246 247 246 247 247 247 248 249 249 250 250 250 250 251 253 256 259 261 264 266 268 269 269 269 268 266
241 241 242 243 243 243 244 244 244 244 245 247 248 249 249 249 250 251 251 252 251 250 249 249 251 252 254 255 255 256 257 256 256 256 256 256 256 257 258 258 259 260 260 261 261 260 260 260 259 257 254 251 248 247 246 245 244 244 245 245 245 246 247 247 248 249 249 249 250 250 249 248 248 249 250 253 255 258 260 262 264 266 268 268 268 267 266
241 241 242 243 244 244 244 244 244 244 245 246 247 249 250 251 252 253 253 255 256 256 255 255 255 255 255 255 256 257 257 257 257 256 255 255 256 258 258 259 260 260 260 260 259 259 259 260 260 259 258 255 253 251 250 249 248 248 247 247 247 247 248 249 250 251 251 252 251 252 252 252 251 251 252 253 254 257 258 260 262 264 265 266 267 267 267
241 241 242 243 244 244 245 246 247 247 246 246 247 248 249 251 253 254 254 255 256 257 258 259 259 258 256 255 255 255 255 255 255 254 254 255 255 255 256 257 257 259 260 260 260 259 259 259 260 260 261 260 259 257 255 253 252 251 251 251 250 250 250 250 250 251 252 252 253 253 254 254 254 254 255 255 256 257 258 259 261 262 263 264 265 265 266
240 241 242 243 243 244 245 247 249 250 250 249 248 248 249 251 253 255 255 255 255 256 257 258 258 259 258 257 256 256 256 256 255 254 254 254 254 255 256 256 255 255 255 255 256 257 258 259 260 261 261 262 262 262 261 260 258 256 255 254 254 253 253 252 252 252 253 253 254 254 254 255 255 256 257 257 258 259 260 260 261 262 263 264 264 265 266
240 241 242 243 243 244 244 245 247 248 249 250 250 250 250 251 252 253 253 254 254 254 255 255 255 256 256 256 257 257 256 255 255 255 254 255 255 255 255 256 256 254 251 249 250 252 254 256 258 260 262 263 263 264 264 264 263 262 259 257 256 255 255 254 254 255 255 255 255 255 255 255 255 256 257 258 258 260 261 261 262 262 263 264 265 265 266
240 241 243 244 244 244 243 244 245 246 247 248 249 250 250 251 252 252 252 253 253 254 254 254 255 256 255 254 255 255 254 254 253 254 255 255 256 256 257 257 257 257 255 252 251 250 251 252 255 257 260 263 264 264 265 265 265 265 264 262 259 257 256 255 254 255 256 256 256 256 256 256 256 256 257 257 258 259 260 261 262 263 264 264 265 265 266
239 240 241 242 243 244 244 244 245 246 247 247 248 249 250 250 251 252 253 253 254 254 255 255 256 257 257 255 255 255 255 255 255 255 255 255 256 257 258 258 258 258 258 257 255 253 252 252 253 254 257 259 261 262 263 264 265 266 267 266 265 262 260 257 255 255 255 257 257 258 258 258 258 258 258 258 259 259 260 261 262 263 263 264 265 265 266
239 239 241 242 243 244 245 245 245 247 248 248 249 250 251 251 252 253 253 254 254 254 255 256 256 257 258 258 257 258 258 258 257 257 256 257 257 257 257 258 258 258 258 257 257 256 254 254 254 255 256 257 258 259 260 261 263 265 266 267 268 267 266 263 260 258 257 257 258 260 260 261 261 261 260 260 260 260 260 261 262 262 263 263 264 265 266
239 240 241 242 244 245 246 246 247 248 249 250 251 251 252 252 253 254 254 254 255 255 255 256 256 257 258 259 258 259 259 260 260 260 259 258 258 258 258 258 258 258 258 257 257 256 256 256 256 256 257 257 258 258 259 260 261 262 264 265 266 266 267 267 266 264 262 261 260 261 261 261 262 262 262 262 262 261 261 261 262 262 263 263 264 264 265
240 241 242 243 244 245 246 247 248 249 250 251 252 252 252 253 253 254 254 255 255 256 256 257 257 257 258 258 258 258 258 259 259 259 259 258 258 258 257 257 257 257 257 257 257 257 257 257 257 257 257 258 258 259 259 259 260 261 262 263 264 264 265 266 266 266 265 264 263 263 262 262 262 263 263 263 264 264 263 263 262 262 263 263 263 264 264
242 243 244 245 245 245 246 246 247 248 249 250 252 253 253 253 253 254 255 255 256 256 257 257 257 257 258 258 258 258 258 258 258 259 259 258 258 258 257 257 257 257 257 257 257 257 257 257 257 258 258 258 258 259 259 259 260 261 262 263 264 264 264 265 265 265 265 265 264 264 263 263 263 264 264 264 265 265 265 265 264 264 264 263 263 263 264
244 245 246 247 248 248 248 248 248 249 250 250 251 252 253 253 254 254 255 256 256 257 257 258 258 258 259 259 259 259 260 260 260 260 260 260 260 260 260 259 259 259 258 258 258 258 258 258 258 258 258 259 259 259 259 259 260 261 261 262 263 263 264 264 265 265 265 265 265 264 264 264 264 264 264 264 265 266 266 266 266 266 266 266 265 265 265
245 246 246 247 249 250 250 250 250 251 251 252 252 253 253 254 255 255 256 256 257 257 258 258 259 259 260 260 260 261 261 261 262 262 262 262 262 262 262 262 261 261 260 260 259 259 259 259 259 259 259 259 260 260 260 260 260 260 261 261 262 262 263 264 264 265 265 265 265 265 265 264 264 264 263 264 264 265 266 266 266 266 267 267 267 267 266
246 246 247 247 248 249 250 250 251 251 252 252 253 253 254 255 255 256 257 257 257 258 259 259 260 260 260 261 261 261 262 262 262 262 262 263 263 263 263 263 263 263 262 262 262 261 261 260 260 260 260 260 261 260 260 260 260 260 260 261 261 262 262 263 264 264 265 265 266 266 266 266 265 265 264 264 263 264 264 265 265 265 266 266 267 267 267
247 248 248 249 249 249 250 251 252 252 252 253 253 254 255 255 256 256 257 257 257 258 258 259 259 260 260 261 261 261 261 262 262 262 263 263 263 263 263 263 263 264 264 264 263 263 263 262 262 262 261 261 261 261 261 261 261 261 261 261 261 262 262 263 263 264 264 265 266 266 266 266 266 265 265 265 264 264 264 264 265 265 265 266 267 267 268
249 249 250 250 251 251 252 252 252 253 253 253 254 254 255 255 256 256 256 257 257 258 258 259 260 260 261 261 261 261 262 262 263 263 263 264 264 264 264 264 264 264 264 264 264 264 264 263 263 263 262 262 262 262 262 262 262 262 262 262 262 262 262 263 263 263 264 264 264 265 265 265 266 265 265 265 265 264 264 264 265 265 266 266 266 267 267
250 250 250 251 251 252 252 253 253 254 254 255 255 255 256 256 256 257 257 258 258 259 259 259 260 260 261 261 262 262 263 263 264 264 264 264 265 265 266 266 265 265 265 265 265 265 264 264 264 264 263 263 263 262 262 262 262 262 262 263 263 263 263 263 263 263 263 263 263 264 264 264 264 265 265 265 265 264 264 264 264 265 266 266 266 266 266
251 251 251 251 252 252 253 254 254 255 256 256 256 256 257 257 257 257 258 258 258 259 259 259 260 261 261 262 262 262 263 264 264 264 264 265 265 265 265 266 266 266 266 266 266 266 265 265 265 265 264 264 264 263 263 263 263 263 263 263 263 263 263 263 263 263 263 263 263 264 264 264 264 264 264 264 264 264 264 264 264 264 265 266 266 266 266
254 254 254 253 253 253 254 255 255 256 256 256 257 257 257 258 258 258 259 259 259 259 260 260 260 261 261 262 262 262 263 263 264 264 264 264 264 264 265 265 265 266 266 266 266 266 266 266 265 265 265 265 264 264 264 264 264 264 263 263 263 263 263 263 263 263 263 263 263 263 264 264 264 265 265 265 265 264 264 264 264 264 264 265 266 266 266
256 256 257 256 256 256 256 256 257 257 257 258 258 258 259 259 259 259 260 260 260 260 261 261 261 261 262 262 262 262 262 263 263 263 264 264 264 264 264 265 265 265 265 265 265 265 266 266 266 266 266 266 265 265 264 264 264 264 264 264 264 263 263 263 263 263 263 263 263 263 263 264 264 265 265 265 265 265 264 264 264 264 263 264 264 265 266
257 257 258 258 258 258 259 259 259 259 260 260 260 260 261 261 261 261 261 261 261 261 262 262 262 262 262 263 263 263 263 263 263 263 264 264 264 264 265 265 264 264 265 265 265 266 266 266 266 267 267 267 267 266 265 264 263 263 263 263 263 264 264 264 264 264 263 263 263 263 263 264 264 265 265 265 265 265 265 264 263 263 263 262 263 264 265
257 257 258 258 259 259 259 260 260 260 261 261 262 262 262 262 262 262 262 262 263 263 263 263 263 264 264 264 264 264 264 264 264 264 265 265 265 265 265 264 264 265 265 266 266 266 266 266 266 267 267 268 268 267 266 265 264 263 262 262 262 262 263 263 263 264 263 263 263 262 263 263 264 264 264 264 264 264 265 265 264 264 263 263 263 263 263
257 257 257 258 258 258 258 259 259 260 261 261 262 263 263 263 263 263 263 264 264 264 264 264 264 265 265 265 265 265 265 265 265 265 265 265 265 264 265 265 265 266 266 266 267 267 267 267 267 267 267 267 267 267 267 266 265 264 263 263 262 261 261 261 262 263 263 263 263 262 262 262 261 261 262 263 263 263 264 264 264 264 264 264 264 264 263
258 258 258 257 257 257 258 258 259 260 261 262 262 263 263 263 263 264 264 265 265 265 265 266 266 266 266 266 266 266 266 266 266 266 265 265 265 265 266 267 267 268 268 268 268 268 268 268 267 267 267 266 266 266 265 265 265 264 264 263 263 262 261 261 261 262 263 263 263 263 262 261 260 260 261 261 262 262 262 263 263 264 264 264 263 263 264
262 262 261 260 260 260 260 261 261 261 262 262 263 263 263 263 263 264 264 265 265 265 266 266 266 266 266 267 267 267 267 267 266 266 265 266 266 267 267 268 268 269 269 270 270 270 269 269 268 268 267 267 266 265 265 264 264 264 263 262 262 262 262 262 262 262 263 263 263 263 262 262 261 261 261 261 261 261 262 262 262 263 263 262 261 260 262
264 263 262 262 261 261 262 262 262 262 262 263 263 263 263 264 264 265 265 265 266 266 266 267 267 267 268 268 268 268 268 267 267 267 267 267 268 268 268 269 269 269 269 269 269 269 269 269 269 268 268 268 267 267 266 265 264 264 263 262 261 261 262 262 262 262 262 262 263 263 263 263 262 262 261 261 261 261 260 261 261 262 261 261 260 259 260
264 263 263 262 262 262 262 262 263 263 263 263 263 264 264 264 265 266 266 267 268 268 268 269 269 269 270 270 270 269 269 269 269 269 269 270 270 271 271 271 271 271 271 271 271 270 270 269 269 268 268 267 267 266 266 265 265 264 263 262 262 262 262 261 261 261 261 262 262 263 263 263 263 263 262 262 262 262 261 261 261 261 260 260 259 259 258
268 267 266 265 265 265 265 264 265 265 265 265 266 266 266 266 267 267 268 269 269 270 270 271 271 271 272 272 271 271 271 271 271 272 272 273 273 274 274 274 274 274 274 274 273 273 272 271 270 269 268 267 266 266 265 265 264 263 262 263 263 263 262 261 261 261 261 261 261 261 261 261 262 262 262 262 261 261 261 260 259 259 259 259 258 257 257
273 272 271 269 268 268 268 268 267 267 267 267 268 268 268 268 269 269 270 270 271 272 272 272 273 273 273 273 272 272 272 272 273 274 274 275 275 275 275 276 276 276 276 275 275 274 274 273 272 271 270 269 268 267 266 265 263 262 262 262 262 262 262 262 262 261 261 261 261 261 261 261 261 261 260 260 260 260 259 259 258 258 258 258 258 257 257
278 276 275 274 272 271 271 270 270 270 270 270 270 270 270 271 271 271 272 272 272 273 273 273 274 274 274 273 273 273 273 274 274 275 275 275 276 277 277 277 277 277 277 276 276 275 275 275 275 274 273 271 270 269 268 267 265 264 263 262 261 261 260 260 260 260 260 260 260 260 260 260 260 260 259 259 259 259 259 259 259 260 260 260 260 260 259
282 280 278 276 275 274 273 272 272 272 272 272 272 272 272 272 273 273 273 273 273 273 273 274 274 274 273 273 273 273 274 274 275 275 275 276 276 277 278 278 278 278 277 277 276 276 276 276 277 276 276 275 273 272 271 269 268 266 265 264 263 262 261 260 259 258 258 258 258 258 258 258 258 258 258 258 258 259 259 259 259 260 260 261 261 261 261
283 281 279 278 277 276 275 274 274 274 274 274 273 273 273 273 273 274 274 274 273 273 273 273 273 273 272 272 272 273 273 274 274 275 275 276 277 278 278 278 278 278 278 278 278 278 278 278 277 277 277 276 275 274 272 271 269 267 266 265 264 263 262 261 260 259 258 258 257 257 257 257 257 257 257 257 257 257 258 258 258 258 258 259 259 259 259
284 282 281 279 278 277 276 275 275 275 276 275 275 275 275 275 274 274 274 274 273 273 273 273 273 272 271 271 271 272 272 273 274 275 276 277 278 279 279 279 278 279 279 279 279 279 278 277 277 277 276 276 275 274 272 271 269 267 266 264 264 263 262 261 260 260 259 258 258 258 257 257 257 257 257 257 256 256 256 256 256 255 255 255 256 256 256
285 283 282 280 278 277 276 276 276 277 277 277 277 276 276 275 275 274 274 274 273 273 272 272 272 272 271 270 271 272 273 273 274 276 277 278 279 279 279 279 279 279 279 279 279 279 278 277 276 276 275 274 273 272 271 270 268 266 265 263 262 261 260 260 259 259 258 258 258 257 257 257 257 256 256 256 256 256 255 255 254 254 253 253 253 253 253
286 284 282 281 279 278 277 277 278 278 278 278 278 277 277 276 275 275 274 274 273 272 272 272 272 271 271 270 271 272 273 274 275 276 277 278 278 279 279 278 279 279 280 280 279 279 278 278 277 276 274 273 271 270 269 268 267 265 264 262 261 260 259 259 258 258 257 257 256 256 256 256 255 255 255 255 254 254 253 253 252 252 252 251 251 251 251
288 286 284 282 280 279 278 278 278 278 278 278 278 278 278 277 277 276 276 275 274 274 273 273 272 272 272 271 271 272 273 274 275 276 276 277 278 278 278 278 278 279 280 280 280 279 278 278 278 276 275 272 270 269 267 266 265 263 262 261 260 259 259 258 257 257 256 256 256 255 255 254 254 254 253 253 252 252 251 250 250 249 249 249 249 249 248
290 287 285 283 281 279 278 278 278 278 278 278 278 278 279 279 279 278 278 277 277 276 275 274 274 273 272 272 271 272 273 274 274 275 275 276 276 276 277 277 277 278 279 279 279 278 277 277 277 276 275 273 272 270 267 264 263 262 261 260 260 259 258 257 257 256 255 255 255 254 254 253 253 252 252 251 250 250 248 248 247 247 247 246 246 246 245
289 287 285 283 281 279 278 278 278 278 278 278 279 279 280 280 281 281 281 280 279 278 277 276 275 274 273 273 272 272 272 273 273 274 274 275 275 276 276 276 276 277 277 278 278 278 277 276 276 275 275 274 273 272 270 267 264 263 261 260 258 258 257 256 256 255 255 255 255 254 253 252 252 251 250 249 249 248 247 246 245 245 245 244 244 244 243
288 286 284 282 281 280 279 278 278 278 278 279 279 280 281 282 283 284 283 282 280 279 278 278 277 275 274 273 273 272 272 272 273 273 273 274 275 275 275 275 275 276 276 277 277 277 277 277 276 276 275 274 274 273 272 270 267 265 262 260 258 256 255 255 254 254 253 253 253 253 253 252 252 251 250 248 247 247 246 246 245 244 243 243 242 242 241
289 287 285 283 283 282 280 279 278 278 279 280 280 281 282 282 283 283 283 283 282 280 279 278 277 276 276 275 274 273 272 272 272 273 273 273 274 274 274 274 273 274 275 275 276 276 277 277 277 277 276 276 275 275 274 272 269 267 264 262 259 257 255 254 254 254 253 253 252 252 252 251 251 250 250 249 248 247 247 246 245 243 243 242 242 241 241
290 288 287 285 284 282 281 280 279 279 279 280 281 282 282 282 282 282 282 283 283 282 280 279 277 277 276 276 275 274 273 272 272 272 272 272 272 273 273 273 272 272 272 273 274 275 276 277 277 277 277 277 276 275 275 274 272 269 267 265 263 260 257 256 256 255 254 254 253 252 251 250 249 249 248 248 248 248 248 248 247 245 244 243 243 242 241
291 290 288 287 284 283 281 281 280 280 279 280 281 281 281 281 281 281 282 282 282 282 282 281 279 278 276 276 275 275 274 273 272 272 272 272 271 271 272 272 272 271 271 271 272 273 274 275 276 276 276 276 276 275 274 273 272 270 269 268 266 264 262 260 259 258 257 255 254 253 252 251 249 248 248 248 247 248 248 249 249 248 247 246 246 245 244
293 291 290 288 286 284 282 281 279 279 280 280 280 281 281 281 281 281 281 281 282 282 283 283 282 280 278 276 275 274 274 273 273 272 271 271 271 271 272 272 272 272 271 270 270 270 271 271 272 272 272 273 273 273 273 272 271 270 268 267 267 267 266 265 263 261 260 259 257 256 255 254 252 251 250 250 249 249 249 248 248 248 248 248 247 247 247
294 293 291 289 288 286 284 282 281 280 280 280 281 280 280 280 281 281 281 281 282 282 282 282 282 281 279 277 275 274 274 273 273 273 272 272 272 272 272 272 272 273 272 271 269 268 268 268 268 269 269 269 269 270 270 271 271 271 269 267 266 266 266 266 266 265 264 263 262 260 259 257 256 255 254 253 252 252 251 251 250 249 249 249 248 248 248
294 293 292 290 288 287 286 285 283 281 280 280 280 280 280 280 280 280 281 281 281 281 281 281 281 280 280 279 277 276 275 274 273 273 273 272 272 272 272 272 273 273 273 273 272 270 268 267 267 267 267 267 268 268 268 268 269 269 268 268 267 265 265 264 264 264 264 264 263 263 262 261 260 259 258 257 256 256 255 254 253 252 251 251 251 250 250
294 293 291 290 288 287 285 285 284 283 281 280 279 278 279 279 279 280 280 281 280 280 280 279 279 280 280 279 279 278 276 275 274 273 272 272 271 271 271 271 272 272 273 274 273 273 272 271 269 269 269 269 269 269 269 269 268 268 268 267 267 266 265 264 263 262 261 260 260 259 259 259 259 259 259 259 258 258 258 257 256 256 255 254 253 253 252
Height
10442 10445 10446 10447 10448 10450 10453 10456 10458 10459 10461 10462 10464 10466 10469 10471 10472 10473 10475 10477 10478 10478 10479 10481 10485 10487 10489 10491 10495 10497 10499 10500 10501 10502 10503 10503 10503 10503 10501 10501 10500 10501 10502 10503 10506 10508 10509 10512 10515 10516 10517 10515 10515 10517 10515 10513 10515 10518 10522 10524 10526 10531 10533 10533 10532 10535 10539 10539 10535 10532 10532 10534 10534 10533 10534 10534 10532 10531 10531 10532 10532 10533 10535 10539 10541 10540 10538
10436 10438 10440 10440 10441 10444 10447 10449 10451 10452 10453 10455 10457 10460 10462 10464 10465 10467 10468 10469 10471 10470 10469 10471 10476 10479 10480 10485 10490 10493 10495 10497 10497 10497 10498 10499 10499 10497 10494 10493 10493 10493 10494 10496 10498 10500 10502 10504 10506 10508 10510 10510 10510 10509 10507 10506 10508 10511 10514 10516 10519 10524 10527 10525 10525 10527 10529 10530 10528 10526 10527 10529 10531 10532 10532 10529 10525 10523 10523 10523 10524 10525 10529 10536 10539 10536 10532
10430 10432 10433 10433 10435 10437 10440 10443 10445 10446 10447 10448 10450 10452 10454 10455 10457 10460 10461 10461 10463 10462 10461 10464 10468 10471 10473 10477 10482 10485 10489 10493 10493 10492 10492 10492 10492 10491 10488 10486 10486 10486 10487 10489 10490 10492 10493 10495 10497 10499 10500 10501 10502 10501 10500 10500 10500 10501 10504 10506 10510 10514 10516 10517 10517 10516 10517 10519 10519 10519 10521 10523 10527 10530 10529 10524 10519 10516 10514 10513 10515 10516 10520 10528 10534 10532 10529
10423 10425 10425 10427 10428 10430 10432 10436 10438 10439 10440 10440 10443 10444 10445 10447 10449 10452 10452 10453 10455 10455 10455 10457 10460 10463 10465 10467 10471 10475 10479 10483 10485 10484 10485 10482 10480 10481 10481 10479 10478 10479 10480 10480 10481 10482 10483 10485 10488 10488 10489 10491 10493 10491 10490 10491 10491 10492 10493 10495 10498 10502 10504 10506 10506 10507 10507 10509 10511 10512 10513 10515 10520 10523 10522 10517 10512 10508 10506 10505 10506 10507 10511 10518 10524 10525 10525
10415 10417 10419 10420 10421 10422 10426 10429 10430 10431 10431 10432 10434 10436 10437 10438 10440 10442 10443 10445 10448 10448 10448 10449 10451 10454 10456 10457 10461 10465 10468 10472 10474 10476 10477 10474 10470 10471 10471 10470 10470 10471 10471 10471 10471 10472 10473 10475 10477 10477 10478 10481 10482 10481 10480 10481 10481 10481 10482 10483 10485 10489 10492 10493 10494 10496 10497 10499 10502 10505 10506 10508 10512 10513 10510 10506 10503 10500 10499 10498 10499 10500 10502 10508 10513 10515 10516
10406 10410 10412 10413 10414 10416 10419 10421 10422 10423 10424 10424 10426 10428 10429 10431 10432 10433 10435 10437 10439 10440 10441 10441 10441 10444 10446 10448 10451 10455 10458 10462 10465 10466 10467 10464 10462 10462 10462 10461 10462 10462 10461 10461 10462 10462 10462 10463 10464 10466 10467 10469 10470 10470 10471 10471 10471 10471 10471 10473 10475 10478 10480 10481 10482 10484 10487 10490 10493 10495 10498 10500 10502 10501 10498 10495 10493 10492 10492 10492 10491 10491 10493 10497 10501 10502 10502
10399 10403 10404 10404 10407 10410 10412 10412 10413 10415 10416 10418 10419 10420 10422 10423 10424 10426 10428 10429 10430 10432 10433 10433 10434 10436 10438 10440 10442 10445 10448 10452 10456 10457 10457 10454 10452 10453 10453 10453 10453 10453 10452 10453 10453 10453 10453 10452 10452 10453 10455 10457 10459 10461 10462 10462 10463 10463 10463 10464 10466 10468 10468 10470 10472 10474 10476 10479 10481 10483 10486 10488 10490 10490 10488 10486 10484 10483 10483 10483 10482 10482 10483 10485 10486 10486 10487
10393 10397 10397 10396 10399 10402 10402 10403 10405 10407 10410 10411 10412 10413 10414 10415 10416 10418 10421 10422 10423 10423 10424 10425 10426 10428 10430 10432 10434 10436 10439 10442 10445 10446 10446 10445 10444 10444 10444 10444 10444 10444 10444 10445 10446 10445 10443 10443 10442 10442 10442 10444 10447 10450 10452 10453 10454 10454 10454 10455 10457 10460 10461 10462 10464 10465 10467 10468 10470 10471 10473 10476 10477 10477 10476 10476 10474 10473 10473 10473 10473 10473 10473 10474 10474 10474 10474
10386 10389 10389 10389 10391 10393 10394 10395 10397 10399 10402 10403 10404 10406 10406 10406 10408 10411 10414 10415 10415 10416 10416 10417 10417 10418 10419 10422 10425 10427 10430 10432 10434 10435 10435 10435 10435 10435 10434 10435 10435 10436 10438 10439 10438 10436 10435 10434 10433 10433 10433 10434 10437 10439 10441 10442 10443 10443 10445 10447 10450 10452 10453 10453 10454 10455 10456 10457 10458 10460 10461 10463 10463 10462 10462 10463 10462 10462 10462 10462 10462 10462 10463 10464 10463 10463 10464
10377 10379 10380 10381 10383 10385 10386 10388 10389 10390 10392 10393 10395 10398 10399 10400 10402 10404 10406 10407 10407 10408 10408 10408 10408 10408 10409 10413 10417 10419 10421 10422 10423 10425 10425 10425 10425 10425 10425 10425 10426 10429 10432 10432 10428 10426 10426 10425 10425 10425 10425 10425 10428 10429 10430 10431 10431 10432 10435 10438 10440 10441 10441 10442 10443 10444 10445 10446 10447 10448 10449 10450 10450 10449 10449 10450 10450 10450 10450 10451 10451 10451 10452 10453 10453 10453 10453
10369 10372 10372 10372 10374 10376 10379 10381 10381 10381 10383 10383 10386 10389 10391 10393 10396 10396 10397 10397 10398 10399 10399 10399 10399 10399 10401 10407 10411 10410 10410 10411 10412 10414 10415 10415 10416 10416 10416 10416 10417 10419 10423 10423 10420 10418 10418 10417 10416 10416 10416 10417 10419 10420 10420 10420 10420 10421 10424 10426 10428 10429 10430 10431 10433 10433 10434 10435 10436 10436 10436 10437 10438 10437 10438 10438 10438 10439 10439 10439 10439 10440 10441 10442 10442 10441 10441
10363 10365 10364 10363 10364 10366 10370 10371 10371 10371 10373 10375 10377 10379 10382 10385 10386 10385 10387 10388 10389 10390 10389 10389 10392 10391 10393 10400 10402 10398 10398 10401 10403 10404 10405 10406 10407 10407 10407 10408 10408 10409 10411 10412 10413 10412 10410 10409 10408 10408 10407 10408 10410 10411 10411 10411 10411 10411 10412 10413 10416 10418 10419 10421 10422 10422 10422 10423 10424 10423 10423 10424 10425 10426 10427 10427 10428 10429 10428 10427 10428 10428 10429 10430 10429 10429 10429
10354 10354 10353 10352 10353 10355 10359 10361 10362 10362 10364 10366 10368 10370 10374 10378 10376 10375 10378 10381 10381 10381 10380 10382 10384 10382 10383 10389 10391 10387 10388 10391 10393 10395 10396 10396 10397 10398 10398 10398 10399 10399 10400 10401 10402 10402 10402 10401 10400 10400 10400 10399 10400 10401 10402 10402 10401 10400 10401 10402 10404 10406 10408 10410 10411 10412 10412 10413 10412 10412 10412 10413 10414 10415 10416 10416 10417 10418 10418 10417 10418 10418 10418 10419 10418 10418 10418
10343 10344 10344 10342 10343 10346 10349 10352 10354 10355 10356 10357 10359 10362 10366 10368 10367 10367 10370 10372 10372 10372 10372 10373 10374 10372 10373 10378 10380 10378 10379 10380 10382 10384 10386 10386 10387 10388 10388 10389 10389 10390 10390 10391 10391 10392 10392 10392 10391 10391 10392 10392 10392 10393 10393 10393 10392 10390 10391 10392 10393 10394 10396 10398 10399 10401 10402 10403 10403 10402 10402 10403 10404 10404 10405 10406 10406 10407 10407 10407 10407 10407 10407 10407 10408 10408 10409
10333 10335 10333 10332 10334 10338 10342 10344 10346 10347 10348 10348 10350 10353 10357 10358 10358 10359 10360 10361 10362 10363 10363 10363 10364 10364 10364 10367 10369 10370 10370 10370 10371 10373 10374 10375 10377 10377 10378 10379 10379 10380 10380 10380 10381 10381 10382 10382 10382 10382 10382 10383 10383 10384 10385 10385 10383 10381 10381 10382 10383 10384 10385 10385 10387 10389 10390 10392 10392 10392 10392 10393 10393 10393 10394 10394 10395 10395 10396 10396 10397 10397 10396 10396 10396 10398 10398
10325 10324 10322 10323 10328 10332 10334 10335 10336 10338 10339 10339 10340 10343 10346 10348 10348 10349 10350 10351 10352 10352 10353 10354 10354 10355 10355 10356 10358 10359 10360 10360 10360 10361 10362 10364 10365 10366 10367 10368 10368 10369 10369 10369 10370 10371 10371 10371 10371 10371 10372 10373 10373 10373 10375 10375 10372 10372 10372 10372 10372 10374 10374 10374 10375 10376 10377 10379 10381 10381 10381 10381 10381 10382 10383 10383 10383 10383 10384 10385 10385 10385 10385 10384 10384 10386 10387
10315 10313 10313 10315 10320 10323 10325 10326 10327 10328 10329 10330 10330 10332 10335 10337 10338 10340 10341 10341 10341 10342 10343 10343 10344 10345 10345 10346 10347 10348 10348 10349 10349 10350 10351 10352 10353 10354 10356 10356 10356 10357 10358 10358 10359 10360 10360 10360 10360 10360 10360 10361 10361 10361 10363 10363 10362 10361 10362 10361 10361 10361 10361 10362 10363 10364 10364 10366 10368 10369 10369 10369 10370 10371 10371 10372 10372 10371 10371 10372 10372 10372 10373 10372 10372 10374 10374
10304 10306 10306 10307 10310 10313 10315 10317 10318 10318 10319 10320 10322 10323 10324 10325 10327 10329 10330 10330 10331 10332 10332 10333 10334 10334 10334 10335 10336 10337 10337 10338 10338 10338 10339 10341 10341 10342 10343 10344 10344 10344 10345 10347 10347 10348 10348 10348 10348 10348 10348 10349 10349 10349 10350 10351 10350 10350 10350 10350 10350 10350 10349 10349 10350 10350 10351 10352 10354 10355 10357 10358 10359 10359 10360 10361 10362 10360 10359 10359 10359 10358 10358 10358 10359 10360 10360
10293 10296 10297 10299 10301 10303 10304 10305 10307 10309 10310 10311 10312 10313 10314 10315 10317 10319 10320 10321 10321 10321 10321 10322 10323 10324 10324 10324 10325 10325 10326 10326 10327 10327 10328 10329 10329 10330 10330 10331 10331 10331 10332 10333 10334 10336 10336 10335 10335 10336 10336 10336 10336 10337 10338 10338 10338 10338 10338 10338 10338 10338 10337 10337 10337 10337 10337 10339 10340 10341 10343 10345 10346 10347 10348 10350 10352 10350 10347 10346 10346 10346 10344 10344 10346 10346 10345
10283 10286 10288 10291 10292 10291 10292 10294 10297 10300 10301 10301 10302 10303 10304 10305 10307 10308 10309 10310 10311 10311 10311 10311 10312 10313 10313 10314 10314 10314 10314 10315 10314 10315 10316 10317 10317 10317 10317 10317 10318 10318 10318 10320 10321 10322 10323 10322 10322 10323 10324 10323 10323 10323 10323 10324 10324 10324 10325 10326 10325 10325 10324 10324 10324 10324 10324 10325 10326 10327 10328 10330 10331 10333 10335 10336 10339 10340 10337 10334 10334 10334 10332 10332 10333 10333 10332
10275 10277 10279 10281 10281 10282 10284 10286 10288 10290 10290 10291 10292 10293 10294 10295 10297 10298 10298 10298 10299 10300 10300 10300 10300 10301 10302 10302 10303 10303 10302 10301 10302 10303 10304 10305 10304 10304 10304 10304 10305 10305 10306 10306 10307 10308 10308 10308 10309 10309 10310 10310 10309 10308 10308 10309 10309 10310 10311 10312 10312 10312 10311 10311 10311 10311 10311 10312 10313 10314 10314 10315 10316 10318 10320 10322 10324 10326 10326 10323 10321 10321 10321 10320 10320 10320 10321
10268 10270 10270 10271 10272 10274 10276 10277 10278 10278 10279 10280 10281 10282 10283 10284 10285 10286 10286 10287 10288 10288 10289 10289 10289 10289 10290 10290 10291 10290 10289 10289 10291 10291 10292 10292 10291 10291 10291 10292 10292 10293 10292 10293 10293 10293 10293 10294 10294 10294 10295 10295 10295 10294 10294 10294 10295 10295 10297 10298 10298 10298 10298 10298 10298 10298 10299 10299 10300 10300 10301 10301 10301 10302 10305 10308 10309 10310 10312 10311 10308 10307 10308 10309 10309 10309 10310
10261 10261 10262 10263 10265 10266 10266 10266 10267 10268 10270 10271 10271 10272 10273 10273 10274 10275 10275 10276 10278 10278 10278 10278 10278 10278 10278 10278 10279 10279 10278 10277 10278 10280 10280 10280 10279 10278 10278 10278 10278 10278 10278 10278 10279 10278 10278 10279 10279 10279 10280 10280 10280 10280 10280 10280 10281 10282 10283 10284 10284 10284 10283 10283 10283 10284 10285 10286 10286 10287 10288 10288 10287 10288 10291 10293 10295 10295 10297 10298 10297 10295 10294 10295 10297 10298 10298
10254 10254 10254 10255 10257 10257 10257 10258 10259 10259 10260 10261 10261 10262 10262 10263 10264 10264 10265 10266 10267 10266 10267 10267 10267 10267 10267 10267 10268 10268 10267 10266 10267 10268 10268 10268 10267 10266 10265 10264 10264 10264 10264 10264 10264 10264 10265 10265 10264 10265 10265 10266 10265 10266 10266 10266 10267 10268 10269 10269 10270 10270 10270 10269 10269 10270 10271 10271 10272 10272 10273 10274 10275 10277 10278 10279 10281 10282 10283 10284 10285 10285 10283 10282 10283 10285 10285
10246 10246 10246 10247 10249 10250 10250 10250 10251 10251 10251 10251 10252 10252 10252 10253 10254 10254 10255 10256 10256 10256 10256 10257 10257 10256 10256 10257 10257 10257 10256 10256 10256 10256 10255 10255 10254 10253 10252 10252 10252 10252 10252 10252 10251 10251 10251 10251 10251 10251 10251 10252 10252 10252 10253 10254 10254 10255 10255 10255 10256 10257 10256 10255 10255 10256 10257 10258 10258 10258 10260 10261 10262 10263 10265 10265 10266 10268 10270 10271 10271 10273 10273 10272 10271 10272 10273
10239 10239 10239 10240 10241 10242 10242 10242 10243 10243 10242 10243 10243 10243 10243 10244 10245 10245 10245 10246 10246 10246 10246 10247 10247 10246 10246 10246 10246 10247 10246 10245 10245 10244 10243 10243 10243 10242 10242 10241 10241 10240 10240 10239 10239 10239 10239 10238 10238 10238 10238 10239 10239 10240 10241 10241 10241 10241 10242 10242 10242 10243 10243 10242 10242 10242 10244 10245 10245 10246 10247 10249 10250 10251 10252 10252 10252 10253 10255 10258 10259 10259 10261 10262 10261 10260 10262
10232 10232 10232 10232 10233 10234 10234 10234 10235 10235 10234 10235 10235 10235 10235 10235 10236 10236 10236 10236 10236 10237 10237 10237 10237 10237 10237 10236 10236 10236 10235 10235 10234 10234 10233 10233 10233 10232 10232 10231 10230 10229 10228 10228 10228 10228 10228 10228 10227 10227 10226 10226 10227 10228 10228 10229 10229 10229 10229 10229 10230 10231 10230 10229 10229 10230 10231 10232 10233 10234 10236 10237 10239 10240 10240 10240 10240 10240 10240 10243 10246 10246 10247 10250 10251 10252 10251
10225 10225 10225 10226 10226 10227 10227 10227 10227 10227 10227 10226 10227 10227 10227 10227 10227 10227 10227 10227 10227 10227 10228 10228 10228 10227 10227 10227 10226 10225 10225 10225 10225 10224 10224 10224 10223 10222 10220 10219 10219 10218 10218 10218 10218 10218 10217 10217 10216 10216 10215 10215 10216 10216 10216 10216 10216 10216 10217 10218 10219 10220 10219 10217 10216 10217 10217 10219 10221 10223 10225 10227 10228 10228 10227 10227 10228 10229 10229 10230 10232 10233 10234 10237 10241 10241 10240
10219 10219 10219 10219 10220 10220 10220 10220 10220 10220 10219 10219 10219 10219 10219 10219 10218 10218 10218 10218 10219 10219 10219 10219 10219 10218 10218 10217 10216 10216 10216 10215 10215 10215 10215 10214 10212 10211 10210 10210 10210 10209 10209 10209 10208 10208 10207 10207 10206 10206 10205 10205 10205 10205 10204 10204 10204 10205 10206 10206 10206 10207 10206 10205 10205 10205 10206 10208 10210 10213 10215 10216 10215 10215 10216 10216 10217 10218 10219 10219 10219 10220 10222 10226 10229 10228 10224
10212 10212 10213 10213 10213 10213 10213 10213 10213 10213 10212 10212 10212 10212 10212 10211 10211 10210 10210 10210 10210 10210 10210 10210 10209 10209 10209 10208 10208 10207 10206 10206 10206 10206 10205 10203 10202 10202 10202 10202 10201 10201 10200 10200 10199 10198 10197 10197 10196 10196 10195 10195 10195 10195 10194 10194 10194 10194 10195 10195 10194 10194 10194 10195 10195 10195 10195 10197 10200 10201 10202 10203 10203 10205 10206 10207 10207 10209 10210 10209 10209 10210 10211 10215 10218 10216 10211
10206 10206 10207 10206 10206 10206 10206 10206 10206 10206 10206 10205 10205 10205 10204 10204 10204 10203 10203 10203 10203 10202 10202 10202 10201 10201 10200 10200 10200 10198 10197 10197 10197 10196 10195 10195 10194 10195 10194 10194 10193 10192 10192 10191 10190 10189 10187 10187 10186 10185 10185 10185 10185 10185 10184 10184 10184 10185 10185 10184 10183 10183 10184 10185 10185 10186 10186 10187 10188 10189 10190 10191 10193 10195 10197 10197 10198 10199 10200 10199 10200 10201 10201 10203 10205 10205 10204
10200 10200 10200 10200 10200 10200 10200 10199 10199 10199 10199 10199 10198 10198 10197 10197 10197 10196 10196 10196 10195 10195 10195 10194 10193 10193 10192 10192 10191 10190 10189 10188 10188 10187 10187 10187 10187 10187 10186 10186 10185 10184 10183 10182 10181 10180 10179 10178 10177 10176 10176 10175 10175 10175 10175 10175 10175 10175 10174 10174 10173 10173 10175 10175 10176 10176 10177 10177 10178 10179 10180 10181 10182 10184 10186 10187 10187 10189 10189 10190 10191 10192 10191 10192 10193 10196 10198
10195 10194 10194 10194 10194 10194 10193 10193 10193 10192 10192 10192 10192 10191 10191 10190 10190 10189 10189 10188 10188 10188 10187 10186 10185 10185 10185 10184 10183 10182 10181 10180 10180 10179 10179 10179 10179 10179 10178 10177 10176 10176 10175 10174 10173 10172 10170 10169 10168 10168 10167 10167 10166 10166 10166 10166 10166 10166 10165 10164 10164 10165 10166 10166 10166 10167 10168 10169 10169 10170 10170 10171 10172 10174 10176 10176 10177 10179 10180 10181 10183 10183 10181 10182 10185 10188 10190
10190 10189 10189 10189 10188 10188 10188 10187 10187 10186 10186 10186 10185 10185 10184 10184 10183 10183 10182 10182 10181 10180 10180 10179 10178 10178 10177 10176 10175 10174 10173 10173 10172 10172 10172 10172 10171 10171 10170 10169 10168 10168 10167 10166 10165 10163 10162 10161 10161 10160 10160 10159 10159 10158 10158 10158 10158 10157 10156 10156 10156 10156 10157 10157 10158 10158 10160 10160 10161 10160 10161 10162 10163 10165 10166 10166 10167 10170 10171 10171 10173 10173 10172 10174 10177 10178 10178
10185 10184 10184 10184 10184 10183 10182 10182 10181 10181 10180 10180 10179 10179 10178 10178 10177 10177 10176 10176 10175 10174 10173 10172 10171 10171 10170 10169 10167 10166 10166 10166 10166 10166 10166 10165 10164 10163 10162 10161 10161 10160 10159 10158 10157 10156 10155 10154 10153 10152 10152 10152 10151 10151 10150 10150 10150 10150 10149 10149 10149 10149 10149 10149 10150 10151 10151 10151 10151 10152 10153 10154 10155 10156 10157 10157 10158 10160 10161 10162 10162 10164 10165 10166 10168 10169 10170
10180 10180 10179 10178 10178 10178 10177 10177 10176 10175 10175 10174 10173 10173 10172 10172 10171 10171 10170 10170 10169 10168 10167 10166 10165 10165 10164 10162 10161 10160 10160 10160 10160 10160 10159 10158 10157 10156 10155 10155 10154 10153 10152 10151 10150 10149 10148 10147 10146 10145 10145 10144 10144 10144 10143 10143 10143 10143 10142 10142 10142 10142 10142 10142 10143 10144 10144 10144 10144 10145 10145 10146 10147 10147 10148 10149 10150 10151 10153 10153 10154 10155 10157 10158 10159 10161 10162
10176 10175 10174 10173 10173 10172 10172 10171 10170 10170 10169 10169 10168 10167 10167 10166 10166 10165 10165 10164 10164 10163 10161 10161 10160 10159 10158 10156 10155 10154 10154 10154 10154 10154 10153 10152 10151 10150 10149 10148 10147 10147 10146 10145 10144 10143 10142 10141 10140 10139 10138 10138 10138 10137 10137 10136 10136 10136 10136 10135 10135 10135 10135 10136 10136 10137 10137 10137 10137 10138 10138 10139 10139 10140 10141 10142 10143 10144 10145 10146 10147 10148 10150 10151 10152 10154 10155
10171 10170 10169 10168 10168 10167 10166 10166 10165 10165 10164 10163 10163 10162 10161 10161 10160 10160 10159 10159 10158 10157 10156 10155 10155 10154 10153 10151 10150 10149 10149 10149 10148 10148 10147 10146 10146 10145 10144 10143 10142 10141 10140 10139 10138 10137 10136 10135 10134 10133 10133 10132 10132 10131 10131 10130 10130 10130 10129 10129 10129 10129 10129 10130 10130 10130 10131 10131 10131 10132 10132 10133 10133 10134 10135 10136 10137 10138 10139 10140 10141 10142 10143 10144 10146 10147 10148
10167 10165 10164 10164 10163 10162 10161 10161 10160 10160 10159 10158 10158 10157 10156 10156 10155 10154 10154 10153 10153 10152 10151 10150 10150 10149 10148 10147 10145 10144 10144 10144 10143 10143 10142 10141 10140 10139 10138 10137 10136 10136 10135 10134 10133 10132 10131 10130 10129 10128 10128 10127 10126 10126 10126 10125 10125 10124 10124 10124 10124 10124 10124 10124 10124 10125 10125 10125 10126 10126 10126 10127 10127 10128 10129 10130 10130 10131 10132 10133 10134 10135 10136 10138 10139 10140 10142
10162 10161 10160 10159 10158 10157 10157 10156 10155 10155 10154 10153 10153 10152 10151 10151 10150 10149 10149 10148 10148 10147 10146 10145 10145 10144 10143 10142 10141 10140 10139 10139 10139 10138 10137 10136 10135 10134 10133 10132 10131 10131 10130 10129 10128 10127 10126 10126 10125 10124 10123 10123 10122 10121 10121 10120 10120 10120 10119 10119 10119 10119 10119 10119 10120 10120 10120 10120 10121 10121 10121 10122 10122 10123 10123 10124 10125 10126 10127 10128 10129 10130 10131 10132 10133 10134 10135
10158 10156 10155 10154 10153 10153 10152 10151 10151 10150 10150 10149 10148 10148 10147 10146 10145 10144 10144 10143 10143 10142 10141 10141 10140 10139 10139 10138 10137 10135 10135 10134 10134 10133 10132 10131 10131 10130 10129 10128 10127 10126 10126 10125 10124 10123 10122 10121 10121 10120 10119 10119 10118 10118 10117 10116 10116 10116 10115 10115 10115 10115 10115 10115 10115 10115 10116 10116 10116 10116 10117 10117 10118 10118 10119 10119 10120 10121 10122 10122 10123 10124 10125 10126 10128 10129 10130
10153 10151 10150 10150 10149 10148 10147 10147 10146 10146 10145 10145 10144 10143 10142 10141 10140 10140 10139 10139 10138 10137 10137 10136 10135 10135 10134 10134 10133 10131 10130 10130 10130 10129 10128 10127 10126 10126 10125 10123 10123 10122 10121 10120 10120 10119 10118 10117 10117 10116 10115 10115 10114 10114 10113 10113 10112 10112 10112 10111 10111 10111 10111 10111 10111 10111 10112 10112 10112 10112 10113 10113 10114 10114 10114 10115 10115 10116 10117 10118 10119 10120 10121 10122 10123 10124 10125
10148 10146 10145 10145 10144 10143 10143 10142 10142 10141 10141 10140 10139 10138 10138 10137 10136 10135 10135 10134 10133 10132 10132 10131 10130 10130 10129 10129 10128 10127 10126 10126 10125 10125 10124 10123 10122 10122 10121 10120 10119 10118 10118 10117 10116 10115 10114 10114 10113 10112 10111 10111 10111 10110 10110 10109 10109 10109 10108 10108 10108 10108 10108 10108 10108 10108 10108 10108 10108 10109 10109 10109 10110 10110 10111 10111 10112 10112 10113 10114 10114 10115 10116 10117 10119 10120 10121
10143 10142 10141 10140 10139 10139 10138 10138 10137 10137 10136 10135 10134 10134 10133 10132 10131 10131 10130 10129 10128 10128 10127 10126 10126 10125 10125 10124 10124 10123 10122 10121 10121 10121 10120 10119 10119 10118 10117 10116 10115 10115 10114 10113 10112 10111 10111 10110 10110 10109 10108 10108 10107 10107 10106 10106 10106 10106 10105 10105 10105 10105 10104 10104 10104 10105 10105 10105 10105 10105 10106 10106 10106 10107 10107 10107 10108 10109 10109 10110 10111 10112 10112 10113 10114 10115 10117
10139 10138 10136 10135 10135 10134 10134 10134 10133 10132 10131 10131 10130 10129 10129 10128 10127 10126 10125 10125 10124 10123 10122 10122 10121 10121 10120 10120 10119 10119 10118 10117 10117 10116 10116 10115 10115 10114 10114 10113 10112 10111 10110 10110 10109 10108 10107 10107 10106 10106 10105 10105 10104 10104 10103 10103 10103 10102 10102 10102 10102 10102 10102 10102 10101 10102 10102 10102 10102 10102 10103 10103 10103 10104 10104 10104 10105 10105 10106 10107 10108 10108 10109 10110 10111 10112 10113
10134 10133 10132 10131 10131 10130 10130 10129 10128 10128 10127 10126 10125 10125 10124 10124 10123 10122 10121 10120 10120 10119 10118 10117 10117 10116 10116 10115 10115 10115 10114 10113 10113 10112 10112 10112 10111 10110 10110 10109 10108 10108 10107 10106 10105 10105 10104 10104 10103 10103 10102 10102 10101 10101 10101 10100 10100 10100 10099 10099 10099 10099 10099 10099 10099 10099 10099 10099 10099 10100 10100 10100 10100 10101 10101 10102 10102 10103 10103 10104 10105 10105 10106 10107 10108 10109 10110
10130 10129 10128 10127 10127 10126 10125 10125 10124 10123 10122 10122 10121 10121 10120 10119 10119 10118 10117 10116 10116 10115 10114 10113 10112 10112 10111 10111 10110 10110 10110 10109 10109 10108 10108 10108 10107 10107 10106 10106 10105 10104 10104 10103 10102 10102 10101 10100 10100 10099 10099 10098 10098 10098 10098 10097 10097 10097 10097 10097 10097 10097 10097 10097 10096 10097 10097 10097 10097 10097 10097 10097 10098 10098 10098 10099 10099 10100 10100 10101 10102 10102 10103 10104 10105 10106 10107
10126 10125 10124 10123 10122 10122 10121 10120 10119 10119 10118 10117 10117 10116 10116 10115 10114 10114 10113 10112 10111 10110 10110 10109 10108 10108 10107 10107 10106 10106 10105 10105 10105 10104 10104 10104 10103 10103 10102 10102 10101 10101 10100 10100 10099 10098 10098 10097 10097 10096 10096 10096 10095 10095 10095 10094 10094 10094 10094 10094 10094 10094 10094 10094 10094 10094 10094 10094 10094 10095 10095 10095 10095 10095 10096 10096 10097 10097 10098 10098 10099 10100 10100 10101 10102 10103 10104
10121 10120 10120 10119 10118 10117 10117 10116 10115 10114 10113 10113 10112 10112 10111 10110 10110 10109 10109 10108 10107 10106 10106 10105 10104 10103 10103 10102 10102 10101 10101 10101 10100 10100 10100 10100 10099 10099 10099 10098 10098 10097 10097 10096 10096 10095 10095 10094 10094 10094 10093 10093 10092 10092 10092 10091 10091 10091 10091 10091 10091 10091 10091 10091 10091 10092 10092 10092 10092 10092 10093 10093 10093 10093 10093 10094 10094 10094 10095 10096 10096 10097 10098 10098 10099 10100 10101
10117 10116 10115 10114 10113 10113 10112 10111 10111 10110 10109 10108 10108 10107 10106 10105 10105 10104 10104 10103 10103 10102 10101 10100 10100 10099 10098 10098 10097 10097 10097 10097 10096 10096 10096 10095 10095 10095 10094 10094 10094 10093 10093 10093 10092 10092 10092 10091 10091 10091 10090 10090 10090 10089 10089 10089 10088 10088 10088 10088 10088 10088 10088 10089 10089 10089 10089 10089 10090 10090 10090 10090 10091 10091 10091 10091 10091 10092 10092 10093 10093 10094 10095 10095 10096 10097 10097
10113 10111 10110 10109 10109 10108 10107 10106 10106 10105 10105 10104 10103 10102 10101 10100 10100 10099 10099 10098 10098 10097 10096 10096 10095 10095 10094 10093 10093 10093 10092 10092 10092 10092 10092 10091 10091 10091 10090 10090 10090 10089 10089 10089 10088 10088 10088 10088 10088 10088 10087 10087 10087 10087 10086 10086 10086 10086 10085 10085 10085 10085 10086 10086 10086 10086 10086 10087 10087 10087 10088 10088 10088 10088 10089 10089 10089 10089 10090 10090 10091 10091 10092 10092 10093 10094 10094
10109 10107 10106 10105 10104 10103 10101 10100 10100 10100 10099 10099 10098 10097 10096 10095 10095 10094 10094 10093 10093 10092 10092 10091 10090 10090 10090 10089 10089 10088 10088 10088 10088 10088 10087 10087 10087 10086 10086 10086 10085 10085 10085 10084 10084 10084 10084 10084 10084 10084 10084 10084 10083 10083 10083 10083 10083 10083 10083 10083 10083 10083 10083 10083 10083 10083 10083 10084 10084 10084 10085 10085 10085 10085 10086 10086 10086 10087 10087 10087 10088 10088 10089 10089 10090 10091 10091